This is the latest recevied weather packets stored in our database for station/object KR8N. If no packets are shown the sender has not sent any weather packets the latest 10 day(s).
| Time | Temp. | Humidity | Pressure | Rain* | Wind** | Luminosity | Snow |
|---|---|---|---|---|---|---|---|
| 1777306639 | 18.89° C | 47% | 1024 hPa | 0 mm | - | 849 W/m² | - |
| 1777306335 | 18.33° C | 51% | 1024 hPa | 0 mm | - | 851 W/m² | - |
| 1777306030 | 18.33° C | 52% | 1024 hPa | 0 mm | - | 850 W/m² | - |
| 1777305728 | 18.33° C | 49% | 1024 hPa | 0 mm | - | 847 W/m² | - |
| 1777305423 | 17.78° C | 50% | 1024 hPa | 0 mm | - | 812 W/m² | - |
| 1777305123 | 17.22° C | 54% | 1024.1 hPa | 0 mm | - | 822 W/m² | - |
| 1777304818 | 17.22° C | 52% | 1024.4 hPa | 0 mm | - | 794 W/m² | - |
| 1777304515 | 17.22° C | 53% | 1024.2 hPa | 0 mm | - | 780 W/m² | - |
| 1777304213 | 17.22° C | 51% | 1024.3 hPa | 0 mm | - | 786 W/m² | - |
| 1777303909 | 16.67° C | 56% | 1024.1 hPa | 0 mm | - | 778 W/m² | - |
| 1777303606 | 17.22° C | 53% | 1024.3 hPa | 0 mm | - | 775 W/m² | - |
| 1777303304 | 16.67° C | 55% | 1024.3 hPa | 0 mm | - | 761 W/m² | - |
| 1777303001 | 16.11° C | 56% | 1024.1 hPa | 0 mm | - | 749 W/m² | - |
| 1777302698 | 16.11° C | 56% | 1024.1 hPa | 0 mm | - | 740 W/m² | - |
| 1777302396 | 16.11° C | 58% | 1024.4 hPa | 0 mm | - | 721 W/m² | - |
| 1777302094 | 15.56° C | 60% | 1024.1 hPa | 0 mm | - | 713 W/m² | - |
| 1777301792 | 15° C | 56% | 1024.1 hPa | 0 mm | - | 698 W/m² | - |
| 1777301489 | 15° C | 58% | 1024.2 hPa | 0 mm | - | 676 W/m² | - |
| 1777301186 | 15° C | 59% | 1024.2 hPa | 0 mm | - | 660 W/m² | - |
| 1777300883 | 15° C | 61% | 1024.1 hPa | 0 mm | - | 638 W/m² | - |
| 1777300581 | 14.44° C | 59% | 1024.4 hPa | 0 mm | - | 630 W/m² | - |
| 1777300278 | 15° C | 60% | 1024.5 hPa | 0 mm | - | 620 W/m² | - |
| 1777299974 | 14.44° C | 62% | 1024.5 hPa | 0 mm | - | 606 W/m² | - |
| 1777299671 | 13.89° C | 60% | 1024.5 hPa | 0 mm | - | 588 W/m² | - |
| 1777299369 | 13.33° C | 62% | 1024.7 hPa | 0 mm | - | 566 W/m² | - |
* Rain latest hour (hover to see other rain measurements)
** Current wind speed in m/s (hover to see current wind gust speed)